Volver al catálogo

KANOPUS-V 4

ActivoCienciaSSO
NORAD 43181·PAYLOAD·🇷🇺 Russia

Lanzado Feb 1, 2018 desde Vostochny Cosmodrome

Loading…

Próximos Pases (próximas 24 horas)

TLE

ActualizadoSource: Space-Track

Época: Sep 14, 2026, 16:19 UTC

1 43181U 18014B   26257.68048044  .00002194  00000-0  98102-4 0  9997
2 43181  97.3486 161.4735 0001865  84.9450 275.1999 15.22348560478358

Sigue KANOPUS-V 4 en tiempo real con AllMySat

Download on the App Store